Flag for Japan Weather past 2 weeks in Fukuoka, Japan

Now
39 °F

Clear.


Feels Like: 39 °F
Forecast: 41 / 54 °F
Wind: 2 mph from North

Location: Fukuoka Airport

Current Time: Mar 7, 2015 at 1:28:30 AM

Latest Report: Mar 7, 2015 at 1:00 AM


Visibility: 10 mi

Pressure: 30.12 "Hg

Humidity: 81%

Dew point: 34 °F

Location of FukuokaLocation

Historic Weather in Fukuoka — Graph

°F

Fukuoka temperature yesterday

Maximum temperature yesterday: 50 °F (at 4:00 PM)
Minimum temperature yesterday: 37 °F (at 11:30 PM)
Average temperature yesterday: 45 °F

Past Weeks' High & Low Weather Summary

 TemperatureHumidityPressure
High59 °F (Feb 22, 12:00 PM)100% (Feb 23, 1:00 AM)30.33 "Hg (Feb 23, 1:00 AM)
Low36 °F (Mar 5, 3:30 AM)29% (Feb 27, 2:30 AM)29.74 "Hg (Mar 3, 3:00 PM)
Average46 °F67%30.09 "Hg
* Reported Midnight between Feb 19 and Feb 20 — Mar 7 12:30 AM, Fukuoka, Weather by CustomWeather, © 2015

Note: Actual official high and low records may vary slightly from our data, if they occured in-between our weather recording intervals... More about our weather records

Advertising

Fukuoka weather history for previous 24 hours

 ConditionsComfort  
Time TempWeatherWind HumidityBarometerVisibility
12:30 AM
Sat, Mar 7
39 °FClear.1 mph81%30.12 "Hg10 mi
12:00 AM39 °FClear.2 mph75%30.12 "Hg10 mi
11:30 PM
Fri, Mar 6
37 °FPassing clouds.3 mph81%30.12 "HgN/A
11:00 PM41 °FPassing clouds.5 mph70%30.12 "HgN/A
10:30 PM43 °FPassing clouds.3 mph66%30.15 "HgN/A
10:00 PM41 °FPassing clouds.6 mph76%30.12 "HgN/A
9:30 PM43 °FPassing clouds.5 mph66%30.15 "HgN/A
9:00 PM43 °FPassing clouds.5 mph66%30.15 "HgN/A
8:30 PM45 °FPassing clouds.5 mph61%30.15 "HgN/A
8:00 PM45 °FPassing clouds.3 mph61%30.15 "HgN/A
7:30 PM45 °FPassing clouds.6 mph61%30.15 "HgN/A
7:00 PM46 °FPassing clouds.6 mph57%30.15 "HgN/A
6:30 PM46 °FPassing clouds.7 mph57%30.15 "HgN/A
6:00 PM48 °FScattered clouds.12 mph50%30.12 "HgN/A
5:30 PM48 °FBroken clouds.7 mph50%30.12 "HgN/A
5:00 PM50 °FPartly sunny.7 mph47%30.12 "HgN/A
4:30 PM50 °FPartly sunny.5 mph47%30.12 "HgN/A
4:00 PM50 °FPartly sunny.7 mph47%30.12 "HgN/A
3:30 PM48 °FPartly sunny.3 mph50%30.12 "HgN/A
3:00 PM48 °FBroken clouds.3 mph50%30.12 "HgN/A
2:30 PM48 °FBroken clouds.5 mph50%30.12 "HgN/A
2:00 PM48 °FPartly sunny.7 mph50%30.12 "HgN/A
1:30 PM46 °FPartly sunny.8 mph53%30.15 "HgN/A
1:00 PM46 °FBroken clouds.8 mph53%30.15 "HgN/A
12:30 PM46 °FBroken clouds.8 mph53%30.18 "HgN/A
12:00 PM46 °FPartly sunny.5 mph53%30.18 "HgN/A
11:30 AM46 °FPartly sunny.7 mph57%30.21 "HgN/A
11:00 AM46 °FPartly sunny.5 mph53%30.21 "HgN/A
10:30 AM46 °FPartly sunny.3 mph57%30.18 "HgN/A
10:00 AM46 °FBroken clouds.3 mph57%30.21 "HgN/A
9:30 AM45 °FPartly sunny.8 mph57%30.18 "HgN/A
9:00 AM45 °FBroken clouds.6 mph57%30.18 "HgN/A
8:30 AM45 °FBroken clouds.6 mph57%30.18 "HgN/A
8:00 AM43 °FPartly sunny.3 mph61%30.18 "HgN/A
7:30 AM43 °FBroken clouds.3 mph66%30.18 "HgN/A
7:00 AM43 °FBroken clouds.2 mph61%30.18 "HgN/A
6:30 AM43 °FPassing clouds.3 mph61%30.15 "HgN/A
5:30 AM43 °FPartly cloudy.1 mph61%30.18 "HgN/A
5:00 AM43 °FPartly cloudy.3 mph66%30.18 "HgN/A
4:30 AM43 °FPartly cloudy.6 mph66%30.18 "HgN/A
4:00 AM43 °FPartly cloudy.6 mph66%30.18 "HgN/A
3:30 AM41 °FPassing clouds.6 mph70%30.15 "HgN/A
3:00 AM41 °FPassing clouds.1 mph70%30.15 "HgN/A
2:30 AM43 °FPassing clouds.1 mph61%30.18 "HgN/A
2:00 AM43 °FPartly cloudy.2 mph66%30.18 "HgN/A
1:30 AM43 °FPassing clouds.5 mph61%30.18 "HgN/A
1:00 AM43 °FPassing clouds.6 mph61%30.18 "HgN/A
Weather by CustomWeather, © 2015

See weather overviewHow to use our weather pages